�������l�o���
Date,Time,MP-1(��Sv/h),MP-2(��Sv/h),MP-3(��Sv/h),MP-4(��Sv/h),MP-5(��Sv/h),MP-6(��Sv/h),MP-7(��Sv/h),MP-8(��Sv/h),����,����(m/s),���J
2021/10/19,00:00,0.571,0.861,0.546,1.045,0.735,0.354,0.612,0.576,��쐼,2.0,��
2021/10/19,00:10,0.573,0.859,0.547,1.044,0.738,0.354,0.610,0.577,��쐼,2.3,��
2021/10/19,00:20,0.574,0.861,0.547,1.043,0.735,0.352,0.612,0.576,�쐼,2.3,��
2021/10/19,00:30,0.573,0.858,0.545,1.043,0.736,0.352,0.612,0.577,�쐼,2.3,��
2021/10/19,00:40,0.574,0.859,0.546,1.043,0.735,0.353,0.612,0.577,�쐼,2.0,��
2021/10/19,00:50,0.573,0.861,0.547,1.044,0.737,0.354,0.610,0.577,�쐼,2.0,��
2021/10/19,01:00,0.574,0.860,0.545,1.043,0.736,0.352,0.611,0.577,���쐼,2.0,��
2021/10/19,01:10,0.574,0.859,0.547,1.043,0.736,0.354,0.611,0.578,�쐼,2.2,��
2021/10/19,01:20,0.575,0.859,0.546,1.042,0.735,0.355,0.612,0.577,�쐼,2.3,��
2021/10/19,01:30,0.574,0.857,0.546,1.043,0.736,0.353,0.610,0.578,���쐼,2.0,��
2021/10/19,01:40,0.573,0.857,0.549,1.043,0.737,0.353,0.612,0.578,�쐼,2.3,��
2021/10/19,01:50,0.573,0.859,0.545,1.046,0.736,0.352,0.613,0.576,�쐼,2.3,��
2021/10/19,02:00,0.572,0.859,0.545,1.045,0.736,0.354,0.611,0.577,�쐼,2.3,��
2021/10/19,02:10,0.575,0.859,0.545,1.043,0.736,0.353,0.612,0.578,�쐼,2.0,��
2021/10/19,02:20,0.574,0.859,0.546,1.043,0.736,0.353,0.612,0.577,�쐼,2.0,��
2021/10/19,02:30,0.574,0.859,0.546,1.043,0.736,0.353,0.611,0.578,�쐼,1.5,��
2021/10/19,02:40,0.573,0.859,0.547,1.045,0.737,0.354,0.612,0.578,�쐼,1.2,��
2021/10/19,02:50,0.573,0.858,0.547,1.043,0.737,0.353,0.610,0.579,�쐼,2.0,��
2021/10/19,03:00,0.574,0.857,0.546,1.045,0.736,0.354,0.613,0.577,���쐼,2.0,��
2021/10/19,03:10,0.574,0.861,0.546,1.044,0.736,0.353,0.613,0.577,�쐼,2.3,��
2021/10/19,03:20,0.573,0.859,0.547,1.044,0.734,0.352,0.611,0.578,�쐼,2.2,��
2021/10/19,03:30,0.574,0.859,0.548,1.042,0.737,0.353,0.613,0.576,���쐼,1.1,��
2021/10/19,03:40,0.576,0.859,0.547,1.044,0.736,0.354,0.613,0.578,���쐼,0.9,��
2021/10/19,03:50,0.575,0.859,0.546,1.044,0.737,0.354,0.614,0.577,���쐼,0.9,��
2021/10/19,04:00,0.574,0.860,0.545,1.043,0.734,0.354,0.613,0.578,���쐼,1.5,��
2021/10/19,04:10,0.574,0.857,0.544,1.045,0.735,0.353,0.613,0.577,���쐼,2.3,��
2021/10/19,04:20,0.574,0.859,0.547,1.042,0.735,0.353,0.612,0.578,�쐼,2.0,��
2021/10/19,04:30,0.572,0.858,0.547,1.044,0.734,0.354,0.613,0.577,���쐼,1.2,��
2021/10/19,04:40,0.574,0.857,0.545,1.045,0.736,0.352,0.611,0.578,���k��,1.2,��
2021/10/19,04:50,0.573,0.858,0.547,1.045,0.736,0.353,0.613,0.577,���k��,1.2,��
2021/10/19,05:00,0.573,0.858,0.547,1.045,0.735,0.353,0.613,0.577,���k��,1.5,��
2021/10/19,05:10,0.575,0.858,0.547,1.044,0.736,0.353,0.612,0.575,���k��,1.5,��
2021/10/19,05:20,0.573,0.858,0.546,1.045,0.736,0.353,0.612,0.578,�k��,1.4,��
2021/10/19,05:30,0.575,0.859,0.546,1.043,0.737,0.354,0.613,0.576,��,1.4,��
2021/10/19,05:40,0.574,0.859,0.547,1.043,0.736,0.354,0.613,0.576,��,1.5,��
2021/10/19,05:50,0.573,0.858,0.546,1.043,0.736,0.354,0.614,0.579,���k��,1.2,��
2021/10/19,06:00,0.574,0.859,0.548,1.044,0.736,0.353,0.612,0.577,���k��,1.7,��
2021/10/19,06:10,0.575,0.858,0.546,1.043,0.735,0.354,0.612,0.577,���k��,1.7,��
2021/10/19,06:20,0.575,0.858,0.547,1.043,0.736,0.352,0.613,0.578,�k��,2.3,��
2021/10/19,06:30,0.574,0.857,0.547,1.044,0.737,0.352,0.613,0.579,�k��,2.0,��
2021/10/19,06:40,0.573,0.859,0.546,1.043,0.736,0.354,0.613,0.577,�k��,2.0,��
2021/10/19,06:50,0.573,0.859,0.547,1.045,0.736,0.353,0.614,0.577,�k��,2.8,��
2021/10/19,07:00,0.573,0.859,0.545,1.045,0.736,0.355,0.613,0.577,�k��,2.3,��
2021/10/19,07:10,0.573,0.859,0.546,1.043,0.738,0.354,0.613,0.576,�k��,2.9,��
2021/10/19,07:20,0.574,0.859,0.544,1.045,0.736,0.354,0.613,0.577,�k�k��,2.5,��
2021/10/19,07:30,0.574,0.858,0.547,1.045,0.737,0.353,0.613,0.578,�k�k��,2.0,��
2021/10/19,07:40,0.575,0.860,0.546,1.045,0.737,0.355,0.614,0.579,�k�k��,2.6,��
2021/10/19,07:50,0.574,0.860,0.547,1.045,0.737,0.354,0.614,0.578,�k��,2.3,��
2021/10/19,08:00,0.574,0.860,0.549,1.045,0.736,0.354,0.614,0.579,�k�k��,2.3,��
2021/10/19,08:10,0.575,0.858,0.547,1.043,0.738,0.354,0.613,0.579,�k�k��,2.5,��
2021/10/19,08:20,0.574,0.859,0.545,1.047,0.737,0.354,0.613,0.579,�k�k��,2.3,��
2021/10/19,08:30,0.574,0.858,0.547,1.047,0.736,0.353,0.613,0.578,�k�k��,2.0,��
2021/10/19,08:40,0.574,0.861,0.548,1.045,0.736,0.353,0.614,0.577,�k��,1.7,��
2021/10/19,08:50,0.574,0.860,0.548,1.045,0.737,0.354,0.613,0.579,�k�k��,1.2,��
2021/10/19,09:00,0.575,0.859,0.547,1.046,0.738,0.355,0.614,0.578,�k��,1.9,��
2021/10/19,09:10,0.577,0.858,0.546,1.044,0.738,0.354,0.614,0.578,���k��,2.9,��
2021/10/19,09:20,0.575,0.860,0.549,1.046,0.739,0.354,0.613,0.578,���k��,2.8,��
2021/10/19,09:30,0.575,0.858,0.548,1.048,0.738,0.354,0.612,0.579,�k��,1.7,��
2021/10/19,09:40,0.577,0.859,0.548,1.045,0.740,0.355,0.613,0.579,�k��,1.5,��
2021/10/19,09:50,0.574,0.858,0.550,1.045,0.737,0.354,0.613,0.579,�k��,1.2,��
2021/10/19,10:00,0.576,0.858,0.548,1.047,0.740,0.354,0.614,0.578,�k��,1.2,��
2021/10/19,10:10,0.576,0.859,0.549,1.046,0.738,0.354,0.613,0.579,�k��,1.2,��
2021/10/19,10:20,0.577,0.858,0.547,1.048,0.740,0.353,0.611,0.581,�k�k��,1.5,��
2021/10/19,10:30,0.575,0.858,0.549,1.048,0.736,0.354,0.614,0.578,�k��,1.7,��
2021/10/19,10:40,0.576,0.858,0.549,1.047,0.737,0.355,0.612,0.579,���k��,1.9,��
2021/10/19,10:50,0.575,0.859,0.549,1.049,0.736,0.354,0.614,0.578,���k��,2.6,��
2021/10/19,11:00,0.578,0.859,0.550,1.046,0.737,0.354,0.613,0.578,���k��,2.8,��
2021/10/19,11:10,0.576,0.859,0.548,1.046,0.737,0.351,0.612,0.580,�k��,2.5,��
2021/10/19,11:20,0.578,0.858,0.549,1.047,0.737,0.350,0.611,0.578,�k��,2.3,��
2021/10/19,11:30,0.577,0.860,0.549,1.046,0.737,0.350,0.612,0.577,���k��,2.3,��
2021/10/19,11:40,0.577,0.861,0.549,1.046,0.738,0.349,0.613,0.578,���k��,2.5,��
2021/10/19,11:50,0.576,0.860,0.550,1.047,0.739,0.347,0.614,0.578,�k��,2.3,��
2021/10/19,12:00,0.577,0.860,0.549,1.046,0.737,0.349,0.613,0.578,�k�k��,1.7,��
2021/10/19,12:10,0.578,0.861,0.549,1.049,0.737,0.355,0.613,0.578,�k�k��,2.0,��
2021/10/19,12:20,0.577,0.863,0.547,1.049,0.737,0.355,0.611,0.578,�k��,2.0,��
2021/10/19,12:30,0.577,0.859,0.550,1.049,0.738,0.355,0.612,0.579,�k��,2.5,��
2021/10/19,12:40,0.577,0.857,0.549,1.048,0.735,0.357,0.614,0.579,�k��,3.0,��
2021/10/19,12:50,0.577,0.857,0.551,1.049,0.735,0.355,0.613,0.578,�k��,4.0,��
2021/10/19,13:00,0.577,0.853,0.552,1.047,0.736,0.354,0.614,0.576,�k��,2.6,��
2021/10/19,13:10,0.576,0.858,0.551,1.049,0.736,0.354,0.614,0.578,���k��,3.5,��
2021/10/19,13:20,0.576,0.858,0.550,1.049,0.737,0.354,0.612,0.578,���k��,3.6,��
2021/10/19,13:30,0.576,0.856,0.549,1.049,0.737,0.354,0.613,0.577,���k��,3.3,��
2021/10/19,13:40,0.578,0.857,0.549,1.048,0.735,0.353,0.613,0.576,�k�k��,3.2,��
2021/10/19,13:50,0.575,0.858,0.549,1.049,0.736,0.354,0.615,0.577,�k�k��,2.6,��
2021/10/19,14:00,0.575,0.857,0.549,1.047,0.737,0.354,0.614,0.577,�k�k��,3.0,��
2021/10/19,14:10,0.575,0.858,0.549,1.048,0.736,0.354,0.613,0.577,�k�k��,3.2,��
2021/10/19,14:20,0.576,0.857,0.550,1.050,0.737,0.354,0.614,0.577,�k��,3.8,��
2021/10/19,14:30,0.577,0.858,0.547,1.049,0.735,0.355,0.616,0.578,�k��,3.1,��
2021/10/19,14:40,0.576,0.857,0.548,1.050,0.737,0.354,0.615,0.577,�k�k��,2.9,��
2021/10/19,14:50,0.574,0.858,0.548,1.046,0.736,0.354,0.616,0.576,�k��,3.4,��
2021/10/19,15:00,0.575,0.858,0.548,1.048,0.737,0.356,0.614,0.576,�k��,3.7,��
2021/10/19,15:10,0.576,0.857,0.549,1.049,0.738,0.354,0.615,0.576,�k��,3.3,��
2021/10/19,15:20,0.576,0.858,0.549,1.049,0.738,0.354,0.614,0.578,�k�k��,3.4,��
2021/10/19,15:30,0.578,0.860,0.550,1.049,0.737,0.350,0.615,0.577,�k�k��,4.4,��
2021/10/19,15:40,0.578,0.860,0.550,1.049,0.736,0.353,0.615,0.577,�k�k��,3.0,��
2021/10/19,15:50,0.576,0.861,0.552,1.049,0.725,0.353,0.616,0.578,�k�k��,2.8,��
2021/10/19,16:00,0.578,0.860,0.551,1.048,0.738,0.353,0.615,0.577,�k�k��,3.2,��
2021/10/19,16:10,0.578,0.861,0.552,1.049,0.740,0.349,0.614,0.576,�k�k��,3.5,��
2021/10/19,16:20,0.578,0.861,0.550,1.049,0.740,0.348,0.615,0.579,�k�k��,3.1,��
2021/10/19,16:30,0.580,0.862,0.552,1.050,0.739,0.350,0.615,0.578,�k�k��,3.2,��
2021/10/19,16:40,0.578,0.862,0.549,1.049,0.740,0.350,0.616,0.578,�k�k��,4.4,��
2021/10/19,16:50,0.578,0.864,0.552,1.048,0.738,0.354,0.615,0.581,�k�k��,4.4,��
2021/10/19,17:00,0.578,0.864,0.550,1.049,0.740,0.352,0.615,0.579,�k�k��,4.4,��
2021/10/19,17:10,0.577,0.862,0.553,1.050,0.739,0.351,0.615,0.581,�k�k��,4.7,��
2021/10/19,17:20,0.579,0.864,0.553,1.049,0.742,0.355,0.613,0.580,�k�k��,5.4,��
2021/10/19,17:30,0.578,0.864,0.552,1.050,0.741,0.356,0.613,0.582,�k�k��,5.0,��
2021/10/19,17:40,0.579,0.862,0.551,1.050,0.742,0.356,0.615,0.581,�k�k��,5.2,��
2021/10/19,17:50,0.578,0.864,0.551,1.049,0.740,0.354,0.616,0.580,�k�k��,4.9,��
2021/10/19,18:00,0.578,0.862,0.552,1.050,0.740,0.357,0.614,0.580,�k�k��,4.8,��
2021/10/19,18:10,0.579,0.864,0.551,1.049,0.741,0.357,0.614,0.581,�k�k��,5.3,��
2021/10/19,18:20,0.579,0.865,0.552,1.049,0.742,0.356,0.615,0.581,�k�k��,4.1,��
2021/10/19,18:30,0.580,0.864,0.552,1.049,0.740,0.356,0.614,0.581,�k�k��,4.3,��
2021/10/19,18:40,0.579,0.866,0.550,1.049,0.740,0.358,0.615,0.580,�k�k��,5.6,��
2021/10/19,18:50,0.578,0.863,0.550,1.049,0.742,0.357,0.616,0.579,�k�k��,5.4,��
2021/10/19,19:00,0.577,0.863,0.552,1.051,0.742,0.358,0.615,0.580,�k��,5.1,��
2021/10/19,19:10,0.579,0.864,0.551,1.049,0.740,0.357,0.617,0.581,�k�k��,4.6,��
2021/10/19,19:20,0.579,0.865,0.552,1.048,0.741,0.357,0.616,0.582,�k�k��,4.3,��
2021/10/19,19:30,0.580,0.864,0.551,1.051,0.740,0.356,0.615,0.579,�k�k��,4.5,��
2021/10/19,19:40,0.580,0.864,0.553,1.052,0.739,0.357,0.616,0.580,�k,5.5,��
2021/10/19,19:50,0.578,0.863,0.552,1.052,0.742,0.356,0.615,0.581,�k,5.7,��
2021/10/19,20:00,0.579,0.864,0.551,1.051,0.740,0.357,0.616,0.580,�k,5.9,��
2021/10/19,20:10,0.580,0.864,0.550,1.051,0.741,0.357,0.619,0.579,�k,6.6,��
2021/10/19,20:20,0.579,0.864,0.549,1.051,0.743,0.356,0.617,0.581,�k,7.5,��
2021/10/19,20:30,0.580,0.865,0.551,1.053,0.741,0.356,0.617,0.580,�k�k��,7.3,��
2021/10/19,20:40,0.578,0.864,0.553,1.052,0.743,0.359,0.617,0.580,�k�k��,6.6,��
2021/10/19,20:50,0.577,0.866,0.552,1.052,0.742,0.358,0.616,0.579,�k�k��,6.8,��
2021/10/19,21:00,0.580,0.863,0.550,1.050,0.742,0.358,0.617,0.580,�k�k��,6.4,��
2021/10/19,21:10,0.578,0.864,0.550,1.050,0.742,0.357,0.617,0.582,�k�k��,7.1,��
2021/10/19,21:20,0.580,0.864,0.550,1.052,0.740,0.357,0.616,0.580,�k�k��,6.2,��
2021/10/19,21:30,0.581,0.863,0.551,1.050,0.743,0.356,0.616,0.581,�k�k��,5.0,��
2021/10/19,21:40,0.580,0.864,0.552,1.051,0.741,0.358,0.617,0.581,�k��,4.9,��
2021/10/19,21:50,0.580,0.862,0.552,1.054,0.743,0.355,0.616,0.580,�k��,5.2,��
2021/10/19,22:00,0.579,0.863,0.550,1.051,0.743,0.357,0.617,0.581,�k�k��,4.4,��
2021/10/19,22:10,0.580,0.865,0.552,1.049,0.742,0.357,0.614,0.579,�k�k��,4.1,�L
2021/10/19,22:20,0.578,0.864,0.552,1.049,0.741,0.356,0.618,0.580,�k��,4.0,�L
2021/10/19,22:30,0.579,0.865,0.552,1.050,0.741,0.360,0.616,0.581,�k�k��,3.4,�L
2021/10/19,22:40,0.578,0.864,0.550,1.052,0.741,0.359,0.616,0.583,�k�k��,3.1,��
2021/10/19,22:50,0.578,0.863,0.550,1.050,0.742,0.356,0.617,0.581,�k�k��,2.6,��
2021/10/19,23:00,0.580,0.861,0.551,1.051,0.740,0.359,0.617,0.580,�k��,2.3,��
2021/10/19,23:10,0.580,0.865,0.550,1.052,0.740,0.356,0.617,0.581,�k��,2.3,��
2021/10/19,23:20,0.579,0.864,0.552,1.050,0.740,0.357,0.618,0.581,�k��,2.9,��
2021/10/19,23:30,0.578,0.864,0.553,1.050,0.740,0.356,0.617,0.581,�k��,3.1,��
2021/10/19,23:40,0.579,0.864,0.551,1.051,0.742,0.357,0.617,0.582,�k��,3.3,��
2021/10/19,23:50,0.581,0.865,0.551,1.053,0.741,0.358,0.617,0.581,�k��,2.6,��
